Flag for China Weather past 2 weeks in Hohhot, Inner Mongolia, China

Now
50 °F

Clear.


Feels Like: 48 °F
Forecast: 40 / 56 °F
Wind: 6 mph from Northeast

Location: Hohhot Airport

Current Time: Oct 26, 2014 at 1:14:21 AM

Latest Report: Oct 26, 2014 at 12:00 AM


Visibility: 10 mi

Pressure: 30.15 "Hg

Humidity: 35%

Dew point: 23 °F

Location of HohhotLocation

Historic Weather in Hohhot — Graph

°F

Hohhot temperature yesterday

Maximum temperature yesterday: 68 °F (at 3:00 PM)
Minimum temperature yesterday: 37 °F (at 6:00 AM)
Average temperature yesterday: 53 °F

Past Weeks' High & Low Weather Summary

 TemperatureHumidityPressure
High68 °F (Oct 25, 3:00 PM)100% (Oct 11, 6:00 AM)30.60 "Hg (Oct 11, 6:00 AM)
Low27 °F (Oct 13, 6:00 AM)21% (Oct 15, 3:00 PM)29.86 "Hg (Oct 24, 2:00 PM)
Average47 °F60%30.14 "Hg
* Reported Midnight between Oct 10 and Oct 11 — Midnight between Oct 25 and Oct 26, Hohhot, Weather by CustomWeather, © 2014

Note: Actual official high and low records may vary slightly from our data, if they occured in-between our weather recording intervals... More about our weather records

Advertising

Hohhot weather history for previous 24 hours

 ConditionsComfort  
Time TempWeatherWind HumidityBarometerVisibility
12:00 AM
Oct 26
50 °FClear.6 mph35%30.15 "Hg10 mi
11:00 PM
Oct 25
52 °FClear.6 mph38%30.12 "Hg10 mi
10:00 PM54 °FClear.10 mph38%30.12 "Hg10 mi
9:00 PM57 °FPassing clouds.10 mph33%30.09 "HgN/A
8:00 PM59 °FPassing clouds.10 mph31%30.07 "HgN/A
7:00 PM61 °FPassing clouds.10 mph29%30.04 "HgN/A
6:00 PM64 °FPassing clouds.8 mph28%30.01 "HgN/A
5:00 PM64 °FHaze.3 mph37%29.98 "Hg3 mi
4:00 PM68 °FHaze.3 mph30%29.95 "Hg2 mi
3:00 PM68 °FClear.6 mph30%29.95 "Hg4 mi
2:00 PM66 °FClear.3 mph30%29.95 "Hg6 mi
1:00 PM66 °FClear.3 mph30%29.95 "Hg5 mi
12:00 PM63 °FSunny.3 mph34%29.98 "Hg10 mi
11:00 AM61 °FPassing clouds.3 mph34%30.01 "HgN/A
10:00 AM57 °FClear.1 mph44%30.01 "Hg5 mi
9:00 AM50 °FClear.3 mph58%30.01 "Hg5 mi
8:00 AM43 °FClear.3 mph71%29.98 "Hg4 mi
7:00 AM37 °FSunny.3 mph81%29.95 "Hg10 mi
6:00 AM37 °FClear.3 mph81%29.95 "Hg4 mi
5:00 AM39 °FClear.3 mph75%29.95 "Hg4 mi
4:00 AM39 °FClear.6 mph75%29.92 "Hg4 mi
3:00 AM41 °FClear.6 mph76%29.92 "Hg4 mi
2:00 AM41 °FClear.6 mph76%29.95 "Hg4 mi
1:00 AM43 °FClear.3 mph71%29.95 "Hg4 mi
Weather by CustomWeather, © 2014

See weather overviewHow to use our weather pages